[[{"header":{"parameterUnit":"m.s-1","parameterCategory":1,"la1":30.2992,"la2":30.254,"lo1":-89.0895,"lo2":-89.0443,"dy":0.0025,"dx":0.0025,"nx":19,"ny":19,"refTime":"2026-03-26T03:00:00:Z","depth":0,"parameterNumber":2,"parameterNumberName":"U-component_of_WINDS"},"data":[0,0,0,-2.5238,-2.524,-2.5309,-2.531,-2.541,-2.5411,0,0,0,0,0,0,0,0,0,0,0,-2.5224,-2.5225,-2.5238,-2.524,-2.5309,-2.531,-2.541,-2.5411,0,0,0,0,0,0,0,0,0,0,0,-2.5223,-2.5224,-2.5226,-2.524,-2.5309,-2.531,-2.5409,-2.5353,0,0,0,0,0,0,0,0,0,0,-2.5284,-2.5276,-2.5224,-2.5226,-2.5241,-2.5309,-2.531,-2.535,-2.5357,-2.5383,0,-2.5408,0,-2.5411,-2.5418,-2.5419,0,0,0,-2.5235,-2.5271,-2.5284,-2.5226,-2.5241,-2.5309,-2.5277,-2.5354,-2.5361,-2.5392,-2.5409,-2.5412,-2.5413,-2.5419,-2.5419,-2.5586,-2.5587,0,0,-2.5232,-2.524,-2.5279,-2.5289,-2.5278,-2.5275,-2.5279,-2.5358,-2.5377,-2.5409,-2.5415,-2.5414,-2.542,-2.5421,-2.5585,-2.5587,0,0,0,-2.5224,-2.5237,-2.5248,-2.5285,-2.5297,-2.5277,-2.5282,-2.5374,-2.5377,-2.5416,-2.5415,-2.542,-2.5422,-2.5584,-2.5586,-2.5643,0,0,0,-2.5221,-2.5232,-2.5247,-2.5252,-2.5296,-2.5336,-2.5296,-2.5371,-2.538,-2.5415,-2.542,-2.5423,-2.5583,-2.5585,-2.5639,-2.5669,0,0,0,-2.5217,-2.5232,-2.5244,-2.5253,-2.5283,-2.5335,-2.5342,-2.5373,-2.538,-2.5419,-2.5423,-2.5582,-2.5585,-2.5635,-2.5663,-2.5715,0,0,0,-2.5215,-2.5294,-2.5245,-2.5333,-2.5282,-2.5369,-2.5341,-2.5406,-2.5446,-2.5421,-2.5583,-2.5586,-2.5634,-2.5659,-2.5712,-2.5761,-2.5782,0,0,-2.5319,-2.5306,-2.5357,-2.5316,-2.5414,-2.5358,-2.5465,-2.5493,-2.549,-2.5555,-2.5558,-2.564,-2.5662,-2.5714,-2.5899,-2.5916,0,0,0,-2.5393,-2.5429,-2.5453,-2.5492,-2.5516,-2.5539,-2.5551,-2.5561,-2.5616,-2.5524,-2.5673,-2.5686,-2.5716,-2.574,-2.5754,-2.578,-2.5597,-2.5596,-2.5596,-2.555,-2.5542,-2.5625,-2.5626,-2.5663,-2.5675,-2.5705,-2.5722,-2.5702,-2.5737,-2.5756,-2.5869,-2.5897,-2.5907,-2.5934,-2.5782,-2.5782,-2.5782,-2.5782,-2.5701,-2.5752,-2.5724,-2.5795,-2.5786,-2.5846,-2.5862,-2.5846,-2.5901,-2.5853,-2.588,-2.5829,-2.5926,-2.5949,-2.5786,-2.5786,-2.5785,-2.5785,-2.5784,-2.5804,-2.5827,-2.5838,-2.5893,-2.5937,-2.5935,-2.5989,-2.5979,-2.5969,-2.5995,-2.6015,-2.6014,-2.6012,-2.6006,-2.6006,-2.6006,-2.6007,-2.6007,-2.6007,-2.5905,-2.5917,-2.5964,-2.5997,-2.602,-2.605,-2.6064,-2.6087,-2.611,-2.6099,-2.6099,-2.6076,-2.5937,-2.5903,-2.6013,-2.6012,-2.6011,-2.6011,-2.601,-2.6062,-2.6025,-2.6098,-2.6122,-2.616,-2.6204,-2.619,-2.6239,-2.6257,-2.6284,-2.6256,-2.6155,-2.6142,-2.613,-2.6102,-2.6257,-2.6257,-2.6257,-2.6257,-2.6149,-2.6141,-2.6213,-2.6252,-2.6289,-2.6285,-2.6368,-2.638,-2.6386,-2.6397,-2.6373,-2.6334,-2.6323,-2.6317,-2.6301,-2.6274,-2.647,-2.647,-2.647,-2.6245,-2.6241,-2.6313,-2.6319,-2.6348,-2.6374,-2.6452,-2.6499,-2.6499,-2.6479,-2.6406,-2.6397,-2.6334,-2.6314,-2.6292,-2.6268,-2.6219,0,0]},{"header":{"parameterUnit":"m.s-1","parameterCategory":1,"la1":30.2992,"la2":30.254,"lo1":-89.0895,"lo2":-89.0443,"dy":0.0025,"dx":0.0025,"nx":19,"ny":19,"refTime":"2026-03-26T03:00:00:Z","depth":0,"parameterNumber":3,"parameterNumberName":"V-component_of_WINDS"},"data":[0,0,0,3.3511,3.3513,3.3575,3.3575,3.3654,3.3655,0,0,0,0,0,0,0,0,0,0,0,3.3495,3.3495,3.3511,3.3513,3.3574,3.3575,3.3654,3.3655,0,0,0,0,0,0,0,0,0,0,0,3.3494,3.3495,3.3496,3.3513,3.3574,3.3575,3.3653,3.3606,0,0,0,0,0,0,0,0,0,0,3.3546,3.3533,3.3495,3.3496,3.3514,3.3574,3.3575,3.3604,3.3609,3.3626,0,3.3644,0,3.3651,3.366,3.366,0,0,0,3.3511,3.3529,3.3544,3.3496,3.3514,3.3574,3.3546,3.3607,3.3613,3.3633,3.3645,3.3648,3.3652,3.3661,3.3661,3.377,3.3771,0,0,3.3508,3.3506,3.354,3.3548,3.354,3.3544,3.3548,3.3611,3.3622,3.3645,3.3649,3.3653,3.3661,3.3662,3.3769,3.377,0,0,0,3.3499,3.3504,3.3518,3.3545,3.3556,3.3546,3.3551,3.3619,3.3624,3.365,3.3654,3.3662,3.3663,3.3769,3.377,3.3799,0,0,0,3.3497,3.3499,3.3516,3.3516,3.3555,3.3589,3.3558,3.362,3.3627,3.3654,3.3662,3.3663,3.3768,3.3769,3.3796,3.3812,0,0,0,3.349,3.3498,3.3508,3.3516,3.3543,3.3588,3.3596,3.3621,3.3629,3.366,3.3664,3.3768,3.3769,3.3795,3.3809,3.3841,0,0,0,3.3482,3.3531,3.3508,3.3565,3.3542,3.3606,3.3596,3.3643,3.3673,3.3662,3.3768,3.377,3.3794,3.3807,3.3839,3.3868,3.388,0,0,3.3543,3.3538,3.3572,3.3553,3.3621,3.3597,3.3668,3.3696,3.3699,3.3746,3.3748,3.3797,3.3809,3.3841,3.3948,3.3957,0,0,0,3.3591,3.3615,3.3633,3.3663,3.3687,3.3709,3.3726,3.3737,3.3777,3.3723,3.3817,3.3824,3.3843,3.3857,3.3865,3.3881,3.3776,3.3776,3.3776,3.3675,3.3678,3.3734,3.3746,3.3774,3.3793,3.3816,3.3833,3.3826,3.3849,3.3863,3.3928,3.3944,3.395,3.3967,3.3878,3.3878,3.3878,3.3879,3.3765,3.38,3.3792,3.3844,3.3847,3.3889,3.3909,3.3903,3.3943,3.3917,3.3934,3.3905,3.396,3.3975,3.3881,3.388,3.388,3.388,3.388,3.382,3.3838,3.3851,3.3896,3.3929,3.3938,3.3978,3.3978,3.3979,3.3995,3.401,3.401,3.4009,3.4003,3.4003,3.4003,3.4003,3.4003,3.4004,3.3872,3.3887,3.3921,3.3952,3.3972,3.3998,3.4018,3.4037,3.4058,3.4055,3.4055,3.4046,3.3966,3.3945,3.4007,3.4006,3.4006,3.4006,3.4005,3.3962,3.3943,3.3995,3.4015,3.4052,3.4086,3.4087,3.4126,3.4142,3.4161,3.4149,3.4089,3.4084,3.4077,3.406,3.4148,3.4148,3.4148,3.4148,3.4009,3.4007,3.4062,3.4094,3.4126,3.4133,3.4191,3.4207,3.422,3.423,3.4217,3.4195,3.4188,3.4187,3.4178,3.4162,3.4274,3.4274,3.4274,3.4065,3.4066,3.4116,3.4131,3.416,3.4185,3.424,3.4276,3.4287,3.4279,3.4238,3.4232,3.4196,3.4185,3.4176,3.4162,3.4133,0,0]}]]